Regional Weather Roundup
Issued by NWS

Home | Current Version | Previous Version | Graphics & Text | Print | Product List | Glossary On
Versions: 1 2 3 4 5 6 7 8 9 10 11 12 13 14 15 16 17 18 19 20 21 22 23 24 25 26 27 28 29 30 31 32 33 34 35 36 37 38 39 40 41 42 43 44 45 46 47 48 49 50
353
ASUS43 KIND 241859
RWRIN

WEATHER ROUNDUP FOR INDIANA
NATIONAL WEATHER SERVICE INDIANAPOLIS IN
300 PM EDT WED AUG 24 2016

NOTE: "FAIR" INDICATES FEW OR NO CLOUDS BELOW 12,000 FEET WITH NO
SIGNIFICANT WEATHER AND/OR OBSTRUCTIONS TO VISIBILITY.

* - STATION DOES NOT REPORT WEATHER SUCH AS PRECIPITATION OR FOG.

+ - STATION NOT QUALITY CONTROLLED BY THE NATIONAL WEATHER SERVICE.
    USE DATA WITH CAUTION...ESPECIALLY DEWPOINT AND RELATIVE
    HUMIDITY OBSERVATIONS.

INZ001>003-010>013-019-020-242000-
NORTHWEST INDIANA

CITY           SKY/WX    TMP DP  RH WIND       PRES   REMARKS
GARY /AIRPORT/ PTSUNNY   79  75  89 S16       29.95F
KNOX *+        PTSUNNY   75  55  50 S9G20     29.98F
MONTICELLO +   CLOUDY    76  72  86 S3        30.00F
RENSSELAER +   CLOUDY    81  75  83 SW12      29.98F

$$

LMZ046-743>745-242000-
SOUTHERN LAKE MICHIGAN

STATION/POSITION TIME  TEMP    WIND        PRES    WAVE
                       AIR SEA DIR/SP/G            HT
                 (UTC) (F)     (DEG/KT/KT) (MB)    (FT)
BURNS HARBOR     1806   76     180/ 14/ 23 1014.2F
MICHIGAN CITY    1800   75     160/ 18/ 22   N/A
5NW MICH CITY    1800   75 74  200/ 17/ 21   N/A     2

$$

INZ004-005-014>016-021>024-242000-
NORTH CENTRAL INDIANA

CITY           SKY/WX    TMP DP  RH WIND       PRES   REMARKS
ELKHART        CLOUDY    75  72  88 S16       29.98F
GOSHEN         CLOUDY    78  72  81 S17G23    29.99F
PERU/GRISSOM   HVY RAIN  77  75  94 S10       30.01S FOG
SOUTH BEND     CLOUDY    77  73  87 SW15      29.97F

$$

INZ006>009-017-018-025>027-242000-
NORTHEAST INDIANA

CITY           SKY/WX    TMP DP  RH WIND       PRES   REMARKS
ANGOLA *+      PTSUNNY   77  70  78 S14       30.01F
FORT WAYNE     LGT RAIN  76  72  87 S9        30.04F

$$

INZ028-029-035-036-043>045-051>053-242000-
WEST CENTRAL INDIANA

CITY           SKY/WX    TMP DP  RH WIND       PRES   REMARKS
GREENCASTLE +  CLOUDY    86  79  79 S13G18    30.03F HX  99
LAFAYETTE      CLOUDY    76  74  93 SW9G20    30.00F
TERRE HAUTE    PTSUNNY   85  73  67 SW14      30.03R

$$

INZ030>032-037>040-046>048-054>057-064-065-242000-
CENTRAL INDIANA

CITY           SKY/WX    TMP DP  RH WIND       PRES   REMARKS
INDIANAPOLIS   PTSUNNY   84  72  67 S15       30.03F
-EAGLE CREEK   CLOUDY    84  72  67 S12G18    30.02F
KOKOMO *+      CLOUDY    79  70  73 S9        30.02F THUNDER
MT COMFORT *+  PTSUNNY   82  75  78 S13       30.05F
SHELBYVILLE    CLOUDY    87  74  64 S13       30.06F HX  95

$$

INZ033-034-041-042-049-050-058-059-242000-
EAST CENTRAL INDIANA

CITY           SKY/WX    TMP DP  RH WIND       PRES   REMARKS
MUNCIE         MOSUNNY   85  73  67 S12       30.05F

$$

INZ060-061-067>069-081>083-085>088-242000-
SOUTHWEST INDIANA

CITY           SKY/WX    TMP DP  RH WIND       PRES   REMARKS
EVANSVILLE     PTSUNNY   90  75  61 S17       30.08F HX 100
HUNTINGBURG *+ PTSUNNY   88  73  62 S15       30.09F HX  96

$$

INZ062-063-066-070>080-084-089>092-242000-
SOUTH CENTRAL AND SOUTHEAST INDIANA

CITY           SKY/WX    TMP DP  RH WIND       PRES   REMARKS
BLOOMINGTON    CLOUDY    85  73  67 SW17G23   30.07S
MADISON *+     MOSUNNY   88  70  55 S12       30.12F

$$





USA.gov is the U.S. government's official web portal to all federal, state and local government web resources and services.